TimeEST,TemperatureF,Dew PointF,Humidity,Sea Level PressureIn,VisibilityMPH,Wind Direction,Wind SpeedMPH,Gust SpeedMPH,PrecipitationIn,Events,Conditions,WindDirDegrees,DateUTC
12:53 AM,64.0,60.1,87,30.09,10.0,NE,9.2,-,N/A,,Overcast,50,2013-01-21 05:53:00
1:53 AM,64.0,60.1,87,30.09,10.0,NE,8.1,-,N/A,,Overcast,50,2013-01-21 06:53:00
2:53 AM,63.0,59.0,87,30.08,10.0,NE,3.5,-,N/A,,Overcast,40,2013-01-21 07:53:00
3:53 AM,63.0,59.0,87,30.06,10.0,NE,5.8,-,N/A,,Overcast,40,2013-01-21 08:53:00
4:53 AM,62.1,57.9,86,30.05,10.0,ENE,3.5,-,N/A,,Overcast,60,2013-01-21 09:53:00
5:53 AM,61.0,57.9,90,30.06,10.0,NNE,4.6,-,N/A,,Mostly Cloudy,20,2013-01-21 10:53:00
7:53 AM,62.1,59.0,90,30.09,10.0,NE,3.5,-,N/A,,Mostly Cloudy,40,2013-01-21 12:53:00
8:53 AM,64.9,60.1,84,30.10,10.0,East,3.5,-,N/A,,Mostly Cloudy,80,2013-01-21 13:53:00
9:00 AM,64.4,60.8,88,30.10,10.0,ENE,4.6,-,N/A,,Overcast,70,2013-01-21 14:00:00
9:17 AM,66.2,60.8,83,30.10,10.0,East,3.5,-,N/A,,Mostly Cloudy,80,2013-01-21 14:17:00
9:53 AM,68.0,61.0,78,30.12,10.0,Calm,Calm,-,N/A,,Overcast,0,2013-01-21 14:53:00
10:13 AM,68.0,60.8,78,30.12,10.0,Calm,Calm,-,N/A,,Overcast,0,2013-01-21 15:13:00
10:24 AM,69.8,62.6,78,30.12,10.0,SSW,3.5,-,N/A,,Overcast,210,2013-01-21 15:24:00
10:53 AM,70.0,62.1,76,30.13,10.0,West,4.6,-,N/A,,Overcast,280,2013-01-21 15:53:00
11:53 AM,71.1,63.0,75,30.11,10.0,Variable,5.8,-,N/A,,Overcast,0,2013-01-21 16:53:00
12:46 PM,75.2,62.6,65,30.08,10.0,NNW,5.8,-,N/A,,Scattered Clouds,340,2013-01-21 17:46:00
12:53 PM,73.9,63.0,68,30.07,10.0,NW,6.9,-,N/A,,Scattered Clouds,320,2013-01-21 17:53:00
1:00 PM,75.2,62.6,65,30.06,10.0,North,5.8,-,N/A,,Mostly Cloudy,360,2013-01-21 18:00:00
1:07 PM,75.2,62.6,65,30.06,10.0,NNW,4.6,-,N/A,,Scattered Clouds,340,2013-01-21 18:07:00
1:53 PM,75.9,63.0,64,30.04,10.0,Variable,3.5,-,N/A,,Scattered Clouds,0,2013-01-21 18:53:00
2:53 PM,75.9,62.1,62,30.04,10.0,NW,4.6,-,N/A,,Scattered Clouds,310,2013-01-21 19:53:00
3:16 PM,73.4,64.4,73,30.03,10.0,WSW,10.4,-,N/A,,Mostly Cloudy,240,2013-01-21 20:16:00
3:29 PM,75.2,64.4,69,30.03,10.0,WSW,9.2,-,N/A,,Scattered Clouds,250,2013-01-21 20:29:00
3:53 PM,73.9,63.0,68,30.04,10.0,WNW,13.8,-,N/A,,Mostly Cloudy,290,2013-01-21 20:53:00
4:05 PM,75.2,62.6,65,30.03,10.0,WNW,13.8,-,N/A,,Mostly Cloudy,290,2013-01-21 21:05:00
4:13 PM,75.2,62.6,65,30.03,10.0,WNW,11.5,-,N/A,,Partly Cloudy,300,2013-01-21 21:13:00
4:53 PM,73.0,62.1,68,30.04,10.0,WNW,11.5,-,N/A,,Clear,300,2013-01-21 21:53:00
5:53 PM,70.0,61.0,73,30.06,10.0,WNW,9.2,-,N/A,,Clear,300,2013-01-21 22:53:00
6:53 PM,68.0,60.1,76,30.07,10.0,NW,8.1,-,N/A,,Clear,310,2013-01-21 23:53:00
7:53 PM,66.0,60.1,81,30.08,10.0,NW,6.9,-,N/A,,Clear,310,2013-01-22 00:53:00
8:53 PM,64.0,59.0,84,30.08,10.0,NW,5.8,-,N/A,,Clear,310,2013-01-22 01:53:00
9:53 PM,63.0,59.0,87,30.10,10.0,NNW,9.2,-,N/A,,Clear,330,2013-01-22 02:53:00
10:53 PM,61.0,57.0,87,30.11,10.0,NNW,10.4,-,N/A,,Clear,330,2013-01-22 03:53:00
11:53 PM,61.0,55.0,81,30.10,10.0,North,6.9,-,N/A,,Clear,350,2013-01-22 04:53:00